KC8ZBC Weather Reports


time (UTC)temp
C
wind
direction
speed
KPH
gust
KPH
rain 1hr
cm
rain 24hr
cm
rain mn
cm
humidity
%
barometer
mb
20260503175214 15 30 9.7 17.7 0.00 0.00 0.00 44 985.9
20260503174710 15 103 1.6 12.9 0.00 0.00 0.00 44 985.8
20260503174208 15 210 8.0 17.7 0.00 0.00 0.00 42 985.5
20260503173707 15 233 3.2 14.5 0.00 0.00 0.00 44 985.9
20260503173204 15 232 9.7 16.1 0.00 0.00 0.00 42 985.9
20260503172701 15 220 12.9 20.9 0.00 0.00 0.00 44 985.7
20260503172158 15 290 3.2 17.7 0.00 0.00 0.00 43 985.9
20260503171654 15 255 4.8 17.7 0.00 0.00 0.00 44 986.2
20260503171152 15 247 3.2 9.7 0.00 0.00 0.00 44 986.2
20260503170649 14 215 8.0 19.3 0.00 0.00 0.00 45 986.5
20260503170145 14 270 0.0 9.7 0.00 0.00 0.00 44 986.4
20260503160107 12 263 4.8 8.0 0.00 0.00 0.00 46 987.1
20260503150537 13 0 3.2 11.3 0.00 0.00 0.00 45 987.4
20260503130927 10 212 3.2 9.7 0.00 0.00 0.00 49 987.9
20260503130425 10 295 3.2 8.0 0.00 0.00 0.00 48 987.9
20260503110823 4 159 0.0 3.2 0.00 0.00 0.00 61 987.9
20260503110320 4 175 0.0 4.8 0.00 0.00 0.00 61 988.1
20260503100246 2 128 4.8 4.8 0.00 0.00 0.00 64 988.3
20260503090205 2 120 0.0 3.2 0.00 0.00 0.00 64 988.8
20260503081138 2 111 0.0 3.2 0.00 0.00 0.00 64 989.1
20260503080634 2 203 0.0 1.6 0.00 0.00 0.00 64 989.3
20260503080131 2 286 0.0 0.0 0.00 0.00 0.00 65 989.2
20260503072608 2 157 0.0 1.6 0.00 0.00 0.00 67 989.3
20260503072105 2 132 3.2 3.2 0.00 0.00 0.00 66 989.4
20260503071602 2 166 0.0 1.6 0.00 0.00 0.00 66 989.2
20260503071059 2 157 1.6 1.6 0.00 0.00 0.00 66 989.4
20260503070555 2 180 0.0 0.0 0.00 0.00 0.00 65 989.4
20260503055014 1 106 0.0 0.0 0.00 0.00 0.00 74 989.7
20260503054510 1 126 0.0 1.6 0.00 0.00 0.00 75 990.0
20260503054008 1 168 0.0 1.6 0.00 0.00 0.00 74 989.9
20260503053506 2 114 0.0 1.6 0.00 0.00 0.00 74 990.0
20260503053002 2 157 0.0 1.6 0.00 0.00 0.00 72 989.9
20260503052500 2 109 0.0 1.6 0.00 0.00 0.00 74 990.0
20260503051956 2 157 1.6 1.6 0.00 0.00 0.00 72 989.9
20260503051452 2 145 0.0 3.2 0.00 0.00 0.00 72 989.9
20260503050949 1 90 0.0 1.6 0.00 0.00 0.00 74 990.1
20260503050445 1 106 0.0 1.6 0.00 0.00 0.00 73 989.9
20260503045943 1 90 1.6 3.2 0.00 0.00 0.00 74 990.0
20260503045440 2 90 1.6 1.6 0.00 0.00 0.00 74 990.0
20260503044937 2 114 1.6 3.2 0.00 0.00 0.00 74 990.0
20260503044433 2 117 0.0 3.2 0.00 0.00 0.00 74 990.0
20260503043931 2 111 1.6 1.6 0.00 0.00 0.00 73 990.0
20260503043427 2 66 1.6 3.2 0.00 0.00 0.00 73 990.2
20260503042924 2 90 1.6 3.2 0.00 0.00 0.00 72 990.1
20260503042421 2 120 0.0 3.2 0.00 0.00 0.00 72 990.3
20260503041917 2 90 3.2 3.2 0.00 0.00 0.00 74 990.1
20260503041414 2 145 0.0 3.2 0.00 0.00 0.00 71 990.2
20260503040911 2 160 0.0 1.6 0.00 0.00 0.00 72 990.2
20260503040409 2 264 1.6 3.2 0.00 0.00 0.00 73 990.1
20260503035906 2 90 0.0 3.2 0.00 0.00 0.00 73 990.1
20260503035403 2 103 1.6 3.2 0.00 0.00 0.00 74 990.3
20260503034900 2 90 1.6 3.2 0.00 0.00 0.00 75 990.1
20260503034358 2 117 1.6 3.2 0.00 0.00 0.00 74 990.3
20260503033854 2 143 3.2 3.2 0.00 0.00 0.00 74 990.2
20260503033352 2 106 0.0 3.2 0.00 0.00 0.00 74 990.2
20260503032849 2 117 0.0 3.2 0.00 0.00 0.00 75 990.3
20260503032349 2 139 3.2 3.2 0.00 0.00 0.00 75 990.4
20260503031846 2 145 1.6 3.2 0.00 0.00 0.00 75 990.4
20260503031343 2 166 1.6 3.2 0.00 0.00 0.00 74 990.4
20260503030839 2 120 0.0 3.2 0.00 0.00 0.00 73 990.3
20260503030336 2 106 0.0 3.2 0.00 0.00 0.00 73 990.5
20260503025832 3 114 1.6 3.2 0.00 0.00 0.00 71 990.5
20260503025330 3 107 3.2 3.2 0.00 0.00 0.00 71 990.4
20260503024827 3 195 0.0 3.2 0.00 0.00 0.00 69 990.5
20260503024324 3 168 1.6 3.2 0.00 0.00 0.00 68 990.5
20260503023820 3 123 1.6 3.2 0.00 0.00 0.00 67 990.6
20260503023318 3 148 1.6 3.2 0.00 0.00 0.00 66 990.7
20260503022814 3 120 0.0 3.2 0.00 0.00 0.00 66 990.8
20260503022314 3 140 0.0 4.8 0.00 0.00 0.00 67 990.7
20260503021811 3 145 0.0 3.2 0.00 0.00 0.00 67 990.7
20260503021307 3 151 1.6 3.2 0.00 0.00 0.00 66 990.6
20260503020805 3 103 1.6 3.2 0.00 0.00 0.00 66 990.8
20260503020303 3 106 0.0 3.2 0.00 0.00 0.00 69 990.6
20260503015758 3 120 3.2 3.2 0.00 0.00 0.00 70 990.6
20260503015256 3 157 1.6 3.2 0.00 0.00 0.00 67 990.6
20260503014751 3 139 0.0 3.2 0.00 0.00 0.00 67 990.7
20260503014249 3 154 3.2 3.2 0.00 0.00 0.00 70 990.8
20260503013746 3 109 1.6 3.2 0.00 0.00 0.00 67 990.6
20260503013244 3 111 1.6 3.2 0.00 0.00 0.00 70 990.6
20260503012741 3 106 3.2 3.2 0.00 0.00 0.00 68 990.4
20260503012238 3 111 1.6 3.2 0.00 0.00 0.00 69 990.5
20260503011735 3 132 1.6 3.2 0.00 0.00 0.00 70 990.4
20260503011232 4 90 1.6 3.2 0.00 0.00 0.00 69 990.6
20260503010728 4 111 0.0 1.6 0.00 0.00 0.00 67 990.5
20260503010225 4 165 0.0 3.2 0.00 0.00 0.00 68 990.3
20260503005722 5 98 0.0 1.6 0.00 0.00 0.00 64 990.4
20260503005220 5 96 1.6 1.6 0.00 0.00 0.00 63 990.1
20260503004715 5 106 0.0 3.2 0.00 0.00 0.00 61 990.3
20260503004214 5 90 0.0 1.6 0.00 0.00 0.00 60 990.3
20260503003711 5 126 0.0 0.0 0.00 0.00 0.00 61 990.4
20260503003208 5 90 0.0 1.6 0.00 0.00 0.00 58 990.1
20260503002704 5 114 1.6 1.6 0.00 0.00 0.00 56 990.2
20260503002201 6 60 0.0 1.6 0.00 0.00 0.00 55 990.3
20260503001657 6 157 0.0 3.2 0.00 0.00 0.00 54 990.4
20260503001154 6 120 0.0 3.2 0.00 0.00 0.00 52 990.2
20260503000652 6 102 1.6 3.2 0.00 0.00 0.00 53 990.2
20260503000149 6 117 1.6 3.2 0.00 0.00 0.00 52 990.4
20260502235646 6 78 1.6 3.2 0.00 0.00 0.00 51 990.2
20260502235144 6 264 0.0 0.0 0.00 0.00 0.00 50 990.4
20260502234639 7 264 0.0 0.0 0.00 0.00 0.00 49 990.4
20260502234137 7 262 0.0 1.6 0.00 0.00 0.00 48 990.3
20260502233633 7 157 0.0 1.6 0.00 0.00 0.00 46 990.7
20260502233130 7 212 0.0 1.6 0.00 0.00 0.00 47 990.4
20260502232625 8 294 0.0 1.6 0.00 0.00 0.00 44 990.4
20260502232123 7 297 3.2 3.2 0.00 0.00 0.00 45 990.4
20260502231620 7 12 0.0 8.0 0.00 0.00 0.00 43 990.4
20260502231118 8 246 1.6 4.8 0.00 0.00 0.00 44 990.4
20260502230616 8 307 3.2 6.4 0.00 0.00 0.00 45 990.5
20260502230114 8 292 3.2 4.8 0.00 0.00 0.00 46 990.4
20260502225609 8 163 0.0 6.4 0.00 0.00 0.00 44 990.5
20260502225107 8 216 3.2 6.4 0.00 0.00 0.00 45 990.4
20260502224602 8 180 0.0 3.2 0.00 0.00 0.00 45 990.5
20260502224100 8 294 1.6 4.8 0.00 0.00 0.00 43 990.5
20260502223557 8 270 0.0 3.2 0.00 0.00 0.00 45 990.6
20260502223056 8 60 0.0 4.8 0.00 0.00 0.00 45 990.5
20260502222553 7 45 0.0 3.2 0.00 0.00 0.00 46 990.6
20260502222049 7 262 1.6 6.4 0.00 0.00 0.00 46 990.7
20260502221544 7 0 3.2 8.0 0.00 0.00 0.00 44 990.4
20260502221042 8 323 3.2 6.4 0.00 0.00 0.00 44 990.5
20260502220538 8 323 3.2 4.8 0.00 0.00 0.00 44 990.7
20260502220035 8 342 3.2 6.4 0.00 0.00 0.00 46 990.7
20260502215532 7 212 3.2 6.4 0.00 0.00 0.00 47 990.7
20260502215029 7 34 4.8 4.8 0.00 0.00 0.00 45 990.8
20260502214526 7 295 3.2 4.8 0.00 0.00 0.00 45 990.8
20260502214023 7 312 3.2 4.8 0.00 0.00 0.00 45 990.8
20260502213519 7 41 3.2 4.8 0.00 0.00 0.00 46 990.7
20260502213018 7 172 3.2 4.8 0.00 0.00 0.00 45 990.6
20260502212516 7 319 3.2 4.8 0.00 0.00 0.00 46 990.6
20260502212013 7 270 1.6 4.8 0.00 0.00 0.00 47 990.7
20260502211509 7 231 0.0 8.0 0.00 0.00 0.00 47 990.8
20260502211006 7 327 3.2 8.0 0.00 0.00 0.00 45 990.7
20260502210503 7 324 3.2 6.4 0.00 0.00 0.00 44 990.7
20260502210000 7 26 4.8 4.8 0.00 0.00 0.00 46 990.8
20260502205456 7 239 0.0 4.8 0.00 0.00 0.00 48 990.9
20260502204954 7 283 3.2 6.4 0.00 0.00 0.00 47 990.9
20260502204450 7 302 4.8 6.4 0.00 0.00 0.00 47 990.9
20260502203948 7 321 6.4 6.4 0.00 0.00 0.00 47 991.1
20260502203445 7 319 0.0 6.4 0.00 0.00 0.00 47 990.8
20260502202942 7 257 1.6 4.8 0.00 0.00 0.00 48 991.1
20260502202438 7 229 4.8 4.8 0.00 0.00 0.00 48 991.1
20260502201937 7 286 3.2 6.4 0.00 0.00 0.00 48 991.2
20260502201432 7 281 4.8 11.3 0.00 0.00 0.00 49 991.2
20260502200929 7 286 0.0 11.3 0.00 0.00 0.00 47 991.3
20260502200425 7 277 4.8 4.8 0.00 0.00 0.00 47 991.2
20260502195923 7 265 3.2 6.4 0.00 0.00 0.00 48 991.4
20260502195419 7 279 3.2 6.4 0.00 0.00 0.00 48 991.4
20260502194916 7 240 0.0 4.8 0.00 0.00 0.00 48 991.5
20260502194413 7 0 0.0 8.0 0.00 0.00 0.00 49 991.3
20260502193909 7 35 1.6 8.0 0.00 0.00 0.00 49 991.5
20260502193406 7 282 0.0 4.8 0.00 0.00 0.00 48 991.7
20260502192901 7 227 4.8 11.3 0.00 0.00 0.00 48 991.7
20260502192359 7 0 1.6 6.4 0.00 0.00 0.00 48 991.6
20260502191855 7 274 3.2 8.0 0.00 0.00 0.00 47 991.6
20260502191354 8 185 3.2 4.8 0.00 0.00 0.00 46 991.7
20260502190851 7 327 3.2 8.0 0.00 0.00 0.00 48 992.0
20260502190348 7 234 4.8 9.7 0.00 0.00 0.00 51 991.8
20260502185844 6 203 0.0 4.8 0.00 0.00 0.00 49 991.7
20260502185339 7 236 3.2 4.8 0.00 0.00 0.00 49 991.7
20260502184837 8 234 4.8 8.0 0.00 0.00 0.00 49 991.9
20260502184332 7 101 0.0 6.4 0.00 0.00 0.00 50 991.9
20260502183829 6 180 3.2 11.3 0.00 0.00 0.00 50 991.8
20260502183325 6 313 4.8 8.0 0.00 0.00 0.00 50 991.9
20260502182820 6 341 4.8 11.3 0.00 0.00 0.00 49 992.0
20260502182316 6 322 6.4 6.4 0.00 0.00 0.00 49 991.9
20260502181813 6 323 8.0 8.0 0.00 0.00 0.00 49 992.0
20260502181312 6 253 6.4 12.9 0.00 0.00 0.00 50 992.1
20260502180809 6 18 3.2 8.0 0.00 0.00 0.00 48 992.1
20260502180306 6 325 6.4 6.4 0.00 0.00 0.00 48 992.3